Date,TemperatureHighF,TemperatureAvgF,TemperatureLowF,DewpointHighF,DewpointAvgF,DewpointLowF,HumidityHigh,HumidityAvg,HumidityLow,PressureMaxIn,PressureMinIn,WindSpeedMaxMPH,WindSpeedAvgMPH,GustSpeedMaxMPH,PrecipitationSumIn
2013-4-1,62,42,25,-100,-100,-100,0,0,100,0.00,40.00,0,-999,0,0.00
2013-4-2,62,43,27,-100,-100,-100,0,0,100,0.00,40.00,0,-999,0,0.00
2013-4-3,62,42,29,-100,-100,-100,0,0,100,0.00,40.00,0,-999,0,0.00
2013-4-4,60,43,30,-100,-100,-100,0,0,100,0.00,40.00,0,-999,0,0.00
2013-4-5,47,40,36,-100,-100,-100,0,0,100,0.00,40.00,0,-999,0,0.00
2013-4-6,42,36,31,-100,-100,-100,0,0,100,0.00,40.00,0,-999,0,0.01
2013-4-7,42,36,35,-100,-100,-100,0,0,100,0.00,40.00,0,-999,0,0.02
2013-4-8,35,32,24,-100,-100,-100,0,0,100,0.00,40.00,0,-999,0,0.02
2013-4-9,40,26,20,-100,-100,-100,0,0,100,0.00,40.00,0,-999,0,0.00
2013-4-10,48,34,13,-100,-100,-100,0,0,100,0.00,40.00,0,-999,0,0.01
2013-4-11,54,41,29,-100,-100,-100,0,0,100,0.00,40.00,0,-999,0,0.00
2013-4-12,51,37,26,-100,-100,-100,0,0,100,0.00,40.00,0,-999,0,0.00
2013-4-13,45,36,29,-100,-100,-100,0,0,100,0.00,40.00,0,-999,0,0.00
2013-4-14,44,32,23,-100,-100,-100,0,0,100,0.00,40.00,0,-999,0,0.00
2013-4-15,40,30,21,-100,-100,-100,0,0,100,0.00,40.00,0,-999,0,0.00
2013-4-16,36,26,19,-100,-100,-100,0,0,100,0.00,40.00,0,-999,0,0.00
2013-4-17,38,26,15,-100,-100,-100,0,0,100,0.00,40.00,0,-999,0,0.01
2013-4-18,47,28,6,-100,-100,-100,0,0,100,0.00,40.00,0,-999,0,0.00
2013-4-19,40,34,29,-100,-100,-100,0,0,100,0.00,40.00,0,-999,0,0.01
2013-4-20,53,39,33,-100,-100,-100,0,0,100,0.00,40.00,0,-999,0,0.01
2013-4-21,49,38,30,-100,-100,-100,0,0,100,0.00,40.00,0,-999,0,0.00
2013-4-22,40,30,23,-100,-100,-100,0,0,100,0.00,40.00,0,-999,0,0.00
2013-4-23,46,30,13,-100,-100,-100,0,0,100,0.00,40.00,0,-999,0,0.00
2013-4-24,52,45,32,-100,-100,-100,0,0,100,0.00,40.00,0,-999,0,0.00
2013-4-25,59,41,24,-100,-100,-100,0,0,100,0.00,40.00,0,-999,0,0.00
2013-4-26,63,47,27,-100,-100,-100,0,0,100,0.00,40.00,0,-999,0,0.00
2013-4-27,64,45,30,-100,-100,-100,0,0,100,0.00,40.00,0,-999,0,0.01
2013-4-28,57,45,35,-100,-100,-100,0,0,100,0.00,40.00,0,-999,0,0.01
2013-4-29,54,43,30,-100,-100,-100,0,0,100,0.00,40.00,0,-999,0,0.00
2013-4-30,43,35,27,-100,-100,-100,0,0,100,0.00,40.00,0,-999,0,0.00